Location: Beaver Brook Station
(42.3793°N, 71.2203°W)
Time: 01:51:35
(UTC+00:00)

Cosmos 220 Rocket - Pass Details

Date: 29 October 2020
Orbit: 574 x 617 km, 74.0° (Epoch: 05 December)

Event Time Altitude Azimuth Distance (km) Brightness Sun altitude
Rises 22:33:43 0° 184° (S) 2,825 7.6 -10.2°
Reaches altitude 10° 22:35:58 10° 178° (S) 1,935 6.7 -10.6°
Maximum altitude 22:40:07 47° 105° (ESE) 806 4.3 -11.4°
Drops below altitude 10° 22:44:21 10° 31° (NNE) 1,973 6.3 -12.2°
Enters shadow 22:45:59 - 27° (NNE) 2,616 6.9 -12.5°
